This is the latest recevied weather packets stored in our database for station/object N3SBK. If no packets are shown the sender has not sent any weather packets the latest 10 day(s).
| Time | Temp. | Humidity | Pressure | Rain* | Wind** | Luminosity | Snow |
|---|---|---|---|---|---|---|---|
| 1777993497 | 21.11° C | 50% | 1001.4 hPa | 0 mm | - | 541 W/m² | - |
| 1777993197 | 21.11° C | 50% | 1001.4 hPa | 0 mm | - | 276 W/m² | - |
| 1777992894 | 21.11° C | 50% | 1001.3 hPa | 0 mm | - | 504 W/m² | - |
| 1777992593 | 20.56° C | 51% | 1001.1 hPa | 0 mm | - | 518 W/m² | - |
| 1777992290 | 20.56° C | 51% | 1001.2 hPa | 0 mm | - | 145 W/m² | - |
| 1777991988 | 20.56° C | 50% | 1001.3 hPa | 0 mm | - | 171 W/m² | - |
| 1777991685 | 20.56° C | 52% | 1001.6 hPa | 0 mm | - | 449 W/m² | - |
| 1777991382 | 20° C | 53% | 1001.4 hPa | 0 mm | - | 311 W/m² | - |
| 1777991079 | 20° C | 53% | 1001.3 hPa | 0 mm | - | 122 W/m² | - |
| 1777990777 | 20° C | 53% | 1001.5 hPa | 0 mm | - | 163 W/m² | - |
| 1777990473 | 19.44° C | 52% | 1001.3 hPa | 0 mm | - | 299 W/m² | - |
| 1777989867 | 19.44° C | 53% | 1001.3 hPa | 0 mm | - | 112 W/m² | - |
| 1777989564 | 19.44° C | 54% | 1001.5 hPa | 0 mm | - | 99 W/m² | - |
| 1777989260 | 19.44° C | 54% | 1001.3 hPa | 0 mm | - | 92 W/m² | - |
| 1777988957 | 19.44° C | 53% | 1001.2 hPa | 0 mm | - | 116 W/m² | - |
| 1777988653 | 19.44° C | 52% | 1001.2 hPa | 0 mm | - | 116 W/m² | - |
| 1777988350 | 19.44° C | 53% | 1001.3 hPa | 0 mm | - | 107 W/m² | - |
| 1777988047 | 19.44° C | 53% | 1001.1 hPa | 0 mm | - | 67 W/m² | - |
| 1777987742 | 19.44° C | 54% | 1001 hPa | 0 mm | - | 111 W/m² | - |
| 1777987440 | 19.44° C | 55% | 1001 hPa | 0 mm | - | 105 W/m² | - |
| 1777987137 | 19.44° C | 55% | 1001.2 hPa | 0 mm | - | 86 W/m² | - |
| 1777986834 | 19.44° C | 55% | 1001 hPa | 0 mm | - | 114 W/m² | - |
| 1777986532 | 18.89° C | 55% | 1001 hPa | 0 mm | - | 116 W/m² | - |
| 1777986230 | 18.89° C | 55% | 1001.2 hPa | 0 mm | - | 76 W/m² | - |
| 1777985926 | 18.89° C | 56% | 1001 hPa | 0 mm | - | 120 W/m² | - |
* Rain latest hour (hover to see other rain measurements)
** Current wind speed in m/s (hover to see current wind gust speed)